[[{"header":{"parameterUnit":"m.s-1","parameterCategory":1,"la1":30.2991,"la2":30.254,"lo1":-89.0895,"lo2":-89.0444,"dy":0.0017,"dx":0.0017,"nx":28,"ny":28,"refTime":"2024-02-08T09:00:00:Z","depth":0,"parameterNumber":2,"parameterNumberName":"U-component_of_WINDS"},"data":[0,0,0,0,0,0,0,0,0,0,0,0,0,0,0,0,0,0,0,0,0,0,0,0,0,0,0,0,0,0,0,0,0,0,0,0,0,0,0,0,0,0,0,0,0,0,0,0,0,0,0,0,0,0,0,0,0,0,-4.5809,-4.5809,0,-4.5806,-4.5806,-4.5806,-4.5727,-4.5725,-4.5723,-4.5721,-4.5718,-4.572,-4.5722,0,0,0,0,0,0,0,0,0,0,0,0,0,-4.5748,-4.575,-4.5809,-4.5809,-4.5809,-4.5806,-4.5806,-4.5806,-4.5728,-4.5725,-4.5723,-4.572,-4.5718,-4.572,-4.5722,0,0,0,0,0,0,0,0,0,0,0,0,0,-4.5763,-4.575,-4.5809,-4.577,-4.5766,-4.5806,-4.5806,-4.5806,-4.5728,-4.5725,-4.5722,-4.5719,-4.5717,-4.572,-4.5722,-4.58,0,0,-4.573,-4.5732,0,0,0,0,0,0,0,0,-4.5762,-4.5765,-4.5776,-4.5772,-4.5769,-4.5764,-4.5783,-4.5804,-4.5729,-4.5743,-4.5721,-4.5718,-4.5736,-4.5737,-4.5743,-4.58,-4.58,-4.5731,-4.5732,-4.5734,-4.5734,0,0,0,0,0,0,0,-4.5761,-4.5765,-4.5808,-4.5776,-4.5772,-4.5752,-4.5751,-4.5787,-4.5756,-4.5741,-4.5735,-4.5736,-4.5733,-4.5741,-4.5742,-4.58,-4.5731,-4.5733,-4.5735,-4.5736,-4.5922,-4.5925,0,0,0,0,0,0,-4.5766,-4.5765,-4.5808,-4.5808,-4.5758,-4.5756,-4.5755,-4.5769,-4.5756,-4.5751,-4.5739,-4.5733,-4.5737,-4.5739,-4.5742,-4.5833,-4.5734,-4.5736,-4.5738,-4.5919,-4.5923,-4.5926,0,0,0,0,0,0,-4.5765,-4.577,-4.5808,-4.5785,-4.5788,-4.576,-4.5777,-4.577,-4.5777,-4.5754,-4.5748,-4.5752,-4.5735,-4.5738,-4.5786,-4.5831,-4.5737,-4.574,-4.5915,-4.592,-4.5924,-4.6015,0,0,0,0,0,0,-4.5763,-4.577,-4.5799,-4.5786,-4.579,-4.5853,-4.5779,-4.5772,-4.5782,-4.5774,-4.5764,-4.576,-4.5733,-4.5783,-4.5789,-4.5833,-4.5742,-4.591,-4.5917,-4.5923,-4.6008,-4.6022,-4.6035,0,0,0,0,0,-4.5761,-4.5824,-4.5801,-4.5807,-4.5825,-4.5855,-4.5857,-4.5825,-4.5786,-4.5815,-4.5801,-4.576,-4.5826,-4.5788,-4.5795,-4.5841,-4.5907,-4.5915,-4.5922,-4.6001,-4.6019,-4.6034,0,0,0,0,0,0,-4.5842,-4.5822,-4.5796,-4.5856,-4.5858,-4.5842,-4.5877,-4.5845,-4.5858,-4.5849,-4.5809,-4.5807,-4.5862,-4.5856,-4.5815,-4.5916,-4.586,-4.5869,-4.5918,-4.5934,-4.5948,-4.5948,-4.5744,0,0,0,0,0,-4.5868,-4.5894,-4.5874,-4.593,-4.5932,-4.5905,-4.5917,-4.5892,-4.5893,-4.5893,-4.5882,-4.5884,-4.5905,-4.5919,-4.5937,-4.6007,-4.6004,-4.6042,-4.6055,-4.6067,-4.6075,-4.6112,-4.6129,-4.5951,-4.5951,-4.595,0,0,-4.5919,-4.5911,-4.593,-4.5946,-4.5945,-4.5973,-4.5906,-4.5939,-4.5959,-4.5898,-4.5943,-4.5935,-4.5935,-4.5995,-4.602,-4.5991,-4.6124,-4.6076,-4.6085,-4.6087,-4.6121,-4.6138,-4.6153,-4.5956,-4.5955,-4.5954,0,0,-4.6028,-4.6025,-4.6071,-4.6072,-4.6071,-4.6053,-4.6064,-4.6054,-4.6046,-4.6091,-4.6046,-4.607,-4.6107,-4.6109,-4.6115,-4.6228,-4.6192,-4.6235,-4.6306,-4.6343,-4.6357,-4.6369,-4.6409,-4.6424,-4.6244,-4.6244,-4.6244,0,-4.6092,-4.6133,-4.6099,-4.6135,-4.6144,-4.609,-4.6137,-4.614,-4.6145,-4.6152,-4.612,-4.6167,-4.6163,-4.6222,-4.625,-4.6257,-4.6269,-4.6235,-4.6357,-4.6369,-4.638,-4.6418,-4.6434,-4.6249,-4.6249,-4.6248,-4.6248,0,-4.6213,-4.6242,-4.628,-4.6287,-4.63,-4.6341,-4.6314,-4.6332,-4.6307,-4.6292,-4.634,-4.6333,-4.635,-4.6362,-4.6338,-4.642,-4.6402,-4.6364,-4.6306,-4.6403,-4.6438,-4.6452,-4.6257,-4.6255,-4.6253,-4.6252,0,0,-4.637,-4.636,-4.6374,-4.6377,-4.6374,-4.6396,-4.6436,-4.6453,-4.6469,-4.6475,-4.6508,-4.6542,-4.6508,-4.6515,-4.649,-4.6523,-4.6613,-4.6481,-4.6481,-4.6506,-4.6704,-4.6731,-4.6749,-4.659,-4.6593,-4.6595,-4.6704,0,-4.6475,-4.6542,-4.6513,-4.6583,-4.6611,-4.6562,-4.6597,-4.6599,-4.6588,-4.6609,-4.6597,-4.6621,-4.6574,-4.6578,-4.6609,-4.6596,-4.6652,-4.6588,-4.662,-4.6622,-4.6621,-4.6767,-4.6796,-4.6899,-4.6717,-4.672,-4.6721,0,-4.6606,-4.6618,-4.6692,-4.6685,-4.6695,-4.6727,-4.6741,-4.6763,-4.6765,-4.6754,-4.6764,-4.6733,-4.6772,-4.6716,-4.677,-4.6727,-4.6739,-4.6735,-4.6738,-4.6739,-4.6676,-4.6771,-4.6931,-4.6946,-4.6742,-4.6741,-4.6739,0,-4.6713,-4.6749,-4.6797,-4.6802,-4.6795,-4.6819,-4.6818,-4.6817,-4.6829,-4.6842,-4.685,-4.6867,-4.6876,-4.6891,-4.6865,-4.6827,-4.6923,-4.6865,-4.6916,-4.6917,-4.6937,-4.6936,-4.71,-4.6946,-4.6946,-4.6946,-4.6946,0,-4.6833,-4.6879,-4.6846,-4.6875,-4.6927,-4.6894,-4.6946,-4.6939,-4.694,-4.6968,-4.6927,-4.6954,-4.692,-4.6944,-4.6925,-4.6973,-4.6978,-4.697,-4.6965,-4.6974,-4.6975,-4.698,-4.6972,-4.695,-4.6949,-4.6948,-4.6948,0,-4.696,-4.694,-4.699,-4.698,-4.6979,-4.7018,-4.701,-4.7037,-4.7024,-4.706,-4.7067,-4.7046,-4.7073,-4.705,-4.7075,-4.7062,-4.7127,-4.7111,-4.7126,-4.7121,-4.7173,-4.7169,-4.7346,-4.7367,-4.7201,-4.7203,-4.7204,0,-4.7037,-4.7072,-4.7068,-4.7084,-4.7085,-4.7112,-4.7125,-4.7095,-4.7111,-4.7117,-4.7144,-4.7168,-4.7185,-4.723,-4.7217,-4.7237,-4.7221,-4.7282,-4.7224,-4.7232,-4.7222,-4.722,-4.7223,-4.7293,-4.7295,-4.7297,-4.7298,0,-4.7177,-4.7165,-4.7186,-4.7204,-4.7221,-4.7233,-4.7242,-4.7258,-4.7228,-4.7248,-4.7275,-4.7288,-4.7315,-4.7339,-4.7356,-4.7354,-4.7322,-4.7317,-4.733,-4.7339,-4.7346,-4.7343,-4.7157,-4.7313,-4.7311,-4.731,-4.7309,-4.7309,-4.7281,-4.731,-4.7312,-4.7337,-4.7341,-4.7351,-4.7377,-4.7368,-4.739,-4.741,-4.7392,-4.7425,-4.7428,-4.7446,-4.745,-4.7475,-4.745,-4.7468,-4.7473,-4.7478,-4.7485,-4.7343,-4.7478,-4.7478,-4.7477,-4.7477,-4.7477,0,-4.7418,-4.7417,-4.7441,-4.7455,-4.7475,-4.7444,-4.7454,-4.7472,-4.7502,-4.7508,-4.7526,-4.7559,-4.7582,-4.7573,-4.7594,-4.7616,-4.7602,-4.7623,-4.762,-4.7621,-4.7507,-4.7493,-4.7634,-4.7634,-4.7634,-4.7634,-4.7634,-4.7634,-4.7491,-4.7539,-4.7529,-4.758,-4.7578,-4.7611,-4.7619,-4.7629,-4.7633,-4.7671,-4.7691,-4.7685,-4.7685,-4.7706,-4.7727,-4.7724,-4.7733,-4.7759,-4.7751,-4.7644,-4.7628,-4.7614,-4.7601,-4.7762,-4.7762,-4.7862,-4.7863,-4.7864]},{"header":{"parameterUnit":"m.s-1","parameterCategory":1,"la1":30.2991,"la2":30.254,"lo1":-89.0895,"lo2":-89.0444,"dy":0.0017,"dx":0.0017,"nx":28,"ny":28,"refTime":"2024-02-08T09:00:00:Z","depth":0,"parameterNumber":3,"parameterNumberName":"V-component_of_WINDS"},"data":[0,0,0,0,0,0,0,0,0,0,0,0,0,0,0,0,0,0,0,0,0,0,0,0,0,0,0,0,0,0,0,0,0,0,0,0,0,0,0,0,0,0,0,0,0,0,0,0,0,0,0,0,0,0,0,0,0,0,1.2284,1.2285,0,1.2337,1.2338,1.2339,1.2403,1.2404,1.2405,1.2405,1.2458,1.2458,1.2459,0,0,0,0,0,0,0,0,0,0,0,0,0,1.2239,1.2239,1.2284,1.2285,1.2286,1.2337,1.2338,1.2339,1.2402,1.2404,1.2405,1.2406,1.2458,1.2458,1.2459,0,0,0,0,0,0,0,0,0,0,0,0,0,1.2272,1.2239,1.2284,1.2324,1.2328,1.2337,1.2338,1.2339,1.2402,1.2404,1.2405,1.2407,1.2458,1.2458,1.2459,1.2433,0,0,1.2461,1.2461,0,0,0,0,0,0,0,0,1.227,1.2273,1.2317,1.2321,1.2326,1.2365,1.2341,1.2371,1.2402,1.2374,1.2406,1.2407,1.2426,1.2429,1.2436,1.2436,1.2438,1.2461,1.2462,1.2462,1.2462,0,0,0,0,0,0,0,1.2267,1.2271,1.2305,1.2318,1.2323,1.2339,1.2345,1.2347,1.2391,1.2376,1.2381,1.2387,1.2428,1.2435,1.2437,1.2439,1.2461,1.2462,1.2462,1.2462,1.2424,1.2423,0,0,0,0,0,0,1.2259,1.2269,1.2304,1.2307,1.2301,1.2339,1.2346,1.2351,1.2391,1.2398,1.2385,1.2389,1.2433,1.2437,1.2439,1.2415,1.2462,1.2463,1.2463,1.2426,1.2424,1.2423,0,0,0,0,0,0,1.2258,1.2262,1.2301,1.2289,1.2296,1.2338,1.2343,1.2351,1.2358,1.2398,1.2406,1.2384,1.2434,1.2438,1.2435,1.2418,1.2463,1.2464,1.2428,1.2425,1.2423,1.2364,0,0,0,0,0,0,1.2256,1.2261,1.2251,1.2289,1.2296,1.2296,1.2342,1.2351,1.2359,1.2365,1.2399,1.2406,1.2436,1.2434,1.2436,1.2419,1.2464,1.2429,1.2427,1.2424,1.2368,1.236,1.2353,0,0,0,0,0,1.2255,1.2231,1.225,1.2254,1.2285,1.2295,1.2299,1.2335,1.2357,1.2349,1.2375,1.2405,1.2419,1.2433,1.2436,1.2419,1.2431,1.2427,1.2424,1.2371,1.2361,1.2353,0,0,0,0,0,0,1.2189,1.2237,1.2259,1.2246,1.2266,1.2306,1.2296,1.2323,1.2337,1.2342,1.2385,1.2392,1.2384,1.2401,1.2416,1.2398,1.2429,1.2427,1.2388,1.2379,1.2372,1.2369,1.2465,0,0,0,0,0,1.2174,1.2178,1.2219,1.2204,1.2213,1.2253,1.2258,1.2284,1.2306,1.2315,1.2341,1.2361,1.237,1.2375,1.2386,1.237,1.238,1.236,1.2353,1.2347,1.2344,1.234,1.2333,1.2412,1.2412,1.2412,0,0,1.2141,1.2167,1.2167,1.2192,1.2211,1.2215,1.2259,1.2261,1.2265,1.2315,1.2315,1.2334,1.236,1.2351,1.2348,1.2365,1.2325,1.2343,1.2338,1.2339,1.2336,1.2329,1.2322,1.241,1.241,1.2411,0,0,1.2084,1.2104,1.2096,1.2114,1.2142,1.2169,1.2166,1.2202,1.2218,1.2218,1.2257,1.2262,1.2276,1.2294,1.2305,1.2258,1.2287,1.226,1.2223,1.2219,1.2212,1.2207,1.2193,1.2187,1.2257,1.2257,1.2257,0,1.204,1.2048,1.2087,1.2088,1.2099,1.2146,1.2139,1.2154,1.2184,1.219,1.2208,1.223,1.225,1.2248,1.2237,1.2243,1.2243,1.2257,1.221,1.2205,1.2201,1.2188,1.2182,1.2254,1.2254,1.2254,1.2255,0,1.1994,1.1999,1.1989,1.2019,1.2028,1.2024,1.2064,1.2069,1.2094,1.2119,1.2121,1.2147,1.2165,1.2166,1.219,1.2168,1.2178,1.2202,1.2235,1.219,1.2178,1.2173,1.2249,1.225,1.2251,1.2252,0,0,1.1898,1.195,1.1946,1.1962,1.1997,1.2002,1.2001,1.202,1.2025,1.2044,1.2046,1.2058,1.2083,1.2095,1.2121,1.2117,1.2082,1.2143,1.2144,1.2133,1.2062,1.2045,1.2038,1.2101,1.21,1.2099,1.2061,0,1.1849,1.1852,1.1888,1.1881,1.1887,1.1933,1.1933,1.1955,1.1979,1.1988,1.2014,1.2023,1.2053,1.2061,1.2059,1.2086,1.2069,1.2089,1.2104,1.2104,1.2098,1.2032,1.2013,1.1975,1.2056,1.2055,1.2055,0,1.1793,1.1811,1.1805,1.1843,1.1847,1.1846,1.1869,1.1876,1.1903,1.1921,1.1936,1.1967,1.197,1.2,1.2006,1.2019,1.2027,1.2042,1.2041,1.2045,1.2078,1.2036,1.1964,1.1959,1.2048,1.2048,1.2049,0,1.1727,1.1749,1.1749,1.176,1.1804,1.1803,1.1821,1.185,1.186,1.1879,1.1886,1.1904,1.1915,1.1929,1.1965,1.1982,1.1967,1.1999,1.1984,1.1983,1.1979,1.1979,1.1909,1.1981,1.1981,1.1981,1.1981,0,1.167,1.1665,1.172,1.172,1.1717,1.1759,1.1754,1.1776,1.1802,1.1808,1.1847,1.1852,1.1898,1.1908,1.1936,1.1939,1.1942,1.1957,1.1965,1.1955,1.1953,1.1962,1.1967,1.198,1.198,1.198,1.1981,0,1.1595,1.1632,1.1635,1.1678,1.1688,1.1684,1.1721,1.1723,1.175,1.1757,1.1761,1.1803,1.1818,1.1854,1.1877,1.1897,1.1892,1.1905,1.1883,1.1889,1.1872,1.1874,1.1807,1.1801,1.1874,1.1873,1.1872,0,1.1558,1.1555,1.1598,1.1606,1.1623,1.1634,1.1645,1.1687,1.1697,1.1729,1.1728,1.1745,1.1762,1.1783,1.1816,1.1835,1.185,1.1825,1.1853,1.1844,1.1852,1.1853,1.1854,1.1819,1.1818,1.1817,1.1817,0,1.1488,1.1507,1.1522,1.1544,1.1557,1.1576,1.1597,1.16,1.1647,1.1657,1.1673,1.1686,1.1712,1.173,1.1754,1.1773,1.1803,1.1808,1.1806,1.1796,1.1785,1.1793,1.1869,1.1809,1.181,1.1811,1.1811,1.1811,1.1433,1.1434,1.1465,1.1481,1.1502,1.1522,1.1527,1.1555,1.157,1.1594,1.1618,1.1632,1.1661,1.1697,1.1715,1.1727,1.1742,1.1738,1.1738,1.1737,1.1733,1.1781,1.1731,1.1732,1.1732,1.1732,1.1732,0,1.1368,1.1391,1.1405,1.1435,1.1448,1.1475,1.1501,1.151,1.1522,1.1547,1.1564,1.1583,1.1602,1.1636,1.1658,1.1661,1.1676,1.1666,1.1667,1.1671,1.1717,1.1718,1.1654,1.1654,1.1654,1.1654,1.1654,1.1654,1.1336,1.134,1.1363,1.1379,1.1402,1.1417,1.143,1.1448,1.1469,1.1489,1.1505,1.1528,1.1558,1.1582,1.1601,1.1611,1.1618,1.1603,1.1618,1.166,1.1668,1.1675,1.1676,1.1604,1.1604,1.1571,1.1571,1.1571]}]]